Hauptseite
METAR-TAF:

METAR-TAF

Flughäfen :

RAF Spadeadam

Spadeadam, England

Breite: 55-03N, Länge: 002-33W, Höhe: 325 m

Beobachtung

Neuester Wetterbericht von vor 25 Minuten, um 23:50 UTC
Wind 12 kt aus West/Südwest
Temperatur 12°C
Luftfeuchtigkeit 100%
Luftdruck 1025 hPa
Sichtweite: 4200 m
feuchter Dunst

METAR: EGOM 202350Z AUTO 25012KT 4200 BR BKN002/// BKN007/// 12/12 Q1025

Zeit: 01:15 (00:15 UTC)


TAF: fehlend

Wetterbeobachtungen und Prognosen von mehr als 4000 Flughäfen (METAR und TAF Bericht).

Die verfügbaren Stationen werden durch gelbe und rote Markierungen auf der Karte dargestellt.

Führen Sie die Maus auf sie, um den Namen der Station zu sehen.

Darauf klicken, um die Beobachtung von Wetterbeobachtungen und Prognosen zu sehen.

Um die Karte zu ändern : klicken Sie auf den grünen Tasten mit einem schwarzen Kreuz Zum Vergrößern, auf den grünen Button mit einem Gedankenstrich zu verkleinern, oder auf die grünen Pfeile für benachbarte Karten.


METAR-TAF: